State College, PA

11:36 PM EST on November 21, 2017 (GMT -0500)
University Park

Weather History for KUNV - December, 2012

Change the Weather History Date:

Tuesday, December 18, 2012

  Actual Average Record
Temperature  
Mean Temperature 39 °F -  
Max Temperature 44 °F 36 °F 65 °F (1984)
Min Temperature 34 °F 22 °F -3 °F (1926)
Degree Days  
Heating Degree Days 26    
Moisture  
Dew Point 35 °F    
Average Humidity 85    
Maximum Humidity 100    
Minimum Humidity 70    
Precipitation  
Precipitation 0.00 in - - ()
Sea Level Pressure  
Sea Level Pressure 29.61 in    
Wind  
Wind Speed 5 mph (West)    
Max Wind Speed 18 mph    
Max Gust Speed 28 mph    
Visibility 8 miles    
Events Rain    
Averages and records for this station are not official NWS values.
T = Trace of Precipitation, MM = Missing Value Source: NWS Daily Summary

Daily Weather History Graph

Daily Weather History Graph

Search for Another Location

Airport or City:

Trip Planner

Search our weather history database for the weather conditions in past years. The results will help you decide how hot, cold, wet, or windy it might be!

Date:

Astronomy

Dec. 18, 2012 Rise Set
Actual Time 7:30 AM EST 4:45 PM EST
Civil Twilight 6:59 AM EST 5:16 PM EST
Nautical Twilight 6:25 AM EST 5:51 PM EST
Astronomical Twilight 5:51 AM EST 6:24 PM EST
Moon 11:07 AM EST (12/18) 11:11 PM EST (12/18)
Length of Visible Light 10h 16m
Length of Day
9h 14m
Waxing Crescent, 34% of the Moon is Illuminated
Dec 18
Waxing Crescent
Dec 20
First Quarter
Dec 28
Full
Jan 4
Last Quarter
Jan 11
New

Hourly Weather History & Observations

Time (EST) Temp. Windchill Dew Point Humidity Pressure Visibility Wind Dir Wind Speed Gust Speed Precip Events Conditions
12:15 AM 42.1 °F - 41.0 °F 96% 29.53 in 10.0 mi Calm Calm - N/A   Overcast
12:35 AM 42.1 °F 39.2 °F 41.0 °F 96% 29.52 in 1.5 mi NNE 4.6 mph - N/A   Overcast
12:55 AM 41.9 °F - 40.6 °F 95% 29.51 in 4.0 mi Calm Calm - N/A   Overcast
1:15 AM 41.9 °F - 41.0 °F 97% 29.50 in 10.0 mi Calm Calm - N/A   Overcast
1:35 AM 42.1 °F - 40.8 °F 95% 29.50 in 5.0 mi Calm Calm - N/A   Overcast
1:55 AM 41.9 °F - 40.8 °F 96% 29.50 in 2.5 mi Calm Calm - N/A   Overcast
2:15 AM 41.9 °F - 40.8 °F 96% 29.49 in 2.0 mi Calm Calm - N/A   Overcast
2:35 AM 41.9 °F - 40.8 °F 96% 29.49 in 2.0 mi Calm Calm - N/A   Overcast
2:55 AM 41.9 °F - 40.6 °F 95% 29.49 in 2.0 mi Calm Calm - N/A   Overcast
3:15 AM 41.9 °F - 40.6 °F 95% 29.49 in 1.8 mi Calm Calm - N/A   Overcast
3:35 AM 41.9 °F 40.0 °F 41.0 °F 97% 29.49 in 1.5 mi West 3.5 mph - N/A   Overcast
3:55 AM 41.9 °F 40.0 °F 41.0 °F 97% 29.49 in 1.8 mi WSW 3.5 mph - N/A Rain Light Rain
4:15 AM 41.9 °F 40.0 °F 41.0 °F 97% 29.49 in 2.0 mi SW 3.5 mph - N/A Rain Light Rain
4:35 AM 41.9 °F 40.0 °F 41.0 °F 97% 29.49 in 4.0 mi SSW 3.5 mph - N/A   Overcast
5:53 AM 41.0 °F - 41.0 °F 100% 29.49 in 5.0 mi Calm Calm - N/A   Overcast
6:53 AM 42.8 °F 38.0 °F 41.0 °F 93% 29.50 in 7.0 mi SW 8.1 mph - N/A   Overcast
7:53 AM 42.8 °F 38.6 °F 41.0 °F 93% 29.50 in 7.0 mi SW 6.9 mph - N/A   Overcast
8:53 AM 44.6 °F 41.4 °F 41.0 °F 87% 29.50 in 7.0 mi SW 5.8 mph - N/A   Overcast
9:53 AM 44.6 °F 38.1 °F 39.2 °F 81% 29.53 in 10.0 mi West 13.8 mph - N/A   Overcast
10:53 AM 42.8 °F 34.5 °F 37.4 °F 81% 29.56 in 10.0 mi West 18.4 mph - N/A   Light Drizzle
11:53 AM 41.0 °F 34.3 °F 35.6 °F 81% 29.56 in 10.0 mi West 11.5 mph 20.7 mph N/A Rain Light Rain
12:53 PM 39.2 °F 31.2 °F 33.8 °F 81% 29.57 in 10.0 mi West 13.8 mph 27.6 mph N/A   Overcast
1:53 PM 39.2 °F 31.2 °F 33.8 °F 81% 29.59 in 10.0 mi West 13.8 mph 24.2 mph N/A   Light Drizzle
2:53 PM 39.2 °F 31.2 °F 32.0 °F 75% 29.62 in 10.0 mi West 13.8 mph 27.6 mph N/A   Light Drizzle
3:53 PM 39.2 °F 31.2 °F 32.0 °F 75% 29.65 in 10.0 mi West 13.8 mph 25.3 mph N/A   Overcast
4:53 PM 37.4 °F 28.5 °F 32.0 °F 81% 29.67 in 10.0 mi West 15.0 mph 23.0 mph N/A   Overcast
5:53 PM 37.4 °F 28.9 °F 28.4 °F 70% 29.69 in 10.0 mi West 13.8 mph - N/A   Overcast
6:53 PM 37.4 °F 29.8 °F 28.4 °F 70% 29.72 in 10.0 mi West 11.5 mph 23.0 mph N/A   Overcast
7:53 PM 37.4 °F 28.2 °F 30.2 °F 75% 29.74 in 10.0 mi West 16.1 mph - N/A   Overcast
8:15 PM 37.0 °F 30.4 °F 30.2 °F 76% 29.75 in 10.0 mi West 9.2 mph - N/A   Mostly Cloudy
8:35 PM 36.9 °F 29.1 °F 29.3 °F 74% 29.75 in 10.0 mi West 11.5 mph 19.6 mph N/A   Mostly Cloudy
8:53 PM 35.6 °F 28.6 °F 28.4 °F 75% 29.75 in 10.0 mi West 9.2 mph - N/A   Scattered Clouds
8:55 PM 36.5 °F 28.7 °F 28.9 °F 74% 29.75 in 10.0 mi West 11.5 mph 17.3 mph N/A   Scattered Clouds
9:15 PM 36.5 °F 29.7 °F 28.4 °F 72% 29.74 in 10.0 mi WNW 9.2 mph 20.7 mph N/A   Scattered Clouds
9:35 PM 35.8 °F 28.8 °F 28.4 °F 75% 29.75 in 10.0 mi West 9.2 mph - N/A   Scattered Clouds
9:55 PM 35.2 °F 29.5 °F 28.4 °F 76% 29.75 in 10.0 mi West 6.9 mph - N/A   Scattered Clouds
10:15 PM 34.9 °F 27.7 °F 28.4 °F 77% 29.76 in 10.0 mi West 9.2 mph - N/A   Mostly Cloudy
10:35 PM 34.7 °F 26.4 °F 28.2 °F 77% 29.76 in 10.0 mi West 11.5 mph - N/A   Scattered Clouds
10:55 PM 34.9 °F 27.1 °F 28.2 °F 77% 29.77 in 10.0 mi West 10.4 mph - N/A   Scattered Clouds
11:15 PM 35.1 °F 27.4 °F 28.4 °F 77% 29.76 in 10.0 mi West 10.4 mph 17.3 mph N/A   Scattered Clouds
11:35 PM 35.6 °F 26.2 °F 28.9 °F 77% 29.77 in 10.0 mi West 15.0 mph 18.4 mph N/A   Mostly Cloudy
11:55 PM 35.4 °F 26.8 °F 29.3 °F 78% 29.76 in 10.0 mi West 12.7 mph 19.6 mph N/A   Overcast